Theta_e
336 330 319 321 326 330 330 331 336 339 338 335 331 327 319 317 316 316 316 315 315 315 315 315 314 315 314 314 314 313 313 311 311 311 312 313 316 322 332 335 338 344 331
333 325 320 319 326 328 327 326 334 337 335 331 327 321 318 317 318 317 317 317 317 317 317 317 317 317 318 317 317 316 314 312 314 318 319 322 318 317 321 328 336 340 335
336 324 320 319 324 329 325 324 331 334 331 326 324 318 318 319 320 319 319 319 319 319 319 319 319 320 320 320 319 318 315 315 321 325 329 335 336 324 319 317 328 335 337
339 324 321 319 321 328 325 323 328 331 327 325 320 319 320 320 320 320 320 320 320 320 320 320 320 320 320 320 320 318 317 320 323 327 333 334 335 324 325 324 317 329 336
334 323 321 319 320 326 323 323 326 326 326 322 320 321 321 321 321 321 320 320 320 320 320 320 320 320 320 320 320 320 319 321 324 331 336 336 336 334 330 328 329 319 330
341 325 321 319 319 324 323 322 325 326 324 320 321 322 322 322 322 321 320 320 320 320 320 320 320 320 320 320 320 320 320 321 324 336 336 331 336 333 329 328 327 324 314
341 338 321 320 319 320 321 321 324 323 320 322 322 322 322 322 322 321 320 320 320 319 320 320 320 320 320 320 320 320 320 320 328 336 337 331 337 331 330 331 329 327 323
339 341 321 320 320 319 319 320 321 319 321 322 322 322 322 322 322 321 321 320 320 319 319 320 320 320 320 320 320 320 320 320 324 334 335 336 326 330 331 332 331 327 326
338 341 323 320 320 320 319 319 319 318 320 322 322 322 321 321 321 320 320 319 319 318 319 319 319 319 319 320 320 320 320 320 326 332 330 332 329 329 331 333 332 330 328
338 340 343 319 320 320 320 319 319 319 320 321 321 321 321 320 320 319 319 319 318 318 318 318 318 318 318 319 319 320 320 320 322 333 333 334 327 328 330 332 332 331 331
337 339 341 339 330 323 323 320 320 320 320 321 321 321 321 320 320 320 319 319 318 317 317 316 316 316 316 317 318 319 319 327 333 332 333 332 327 327 331 332 332 332 331
334 336 338 340 341 340 338 334 321 321 321 321 321 321 321 321 324 321 320 319 318 318 317 316 316 315 315 323 329 321 318 330 333 332 332 331 327 329 332 333 333 333 332
333 335 337 342 343 342 339 340 337 336 333 326 323 322 321 330 333 323 328 319 318 318 317 318 316 316 326 330 330 331 331 332 331 331 331 328 325 330 332 333 333 333 333
336 333 336 341 344 343 342 341 341 339 341 341 334 323 323 323 328 332 336 335 325 330 319 323 332 332 331 331 329 330 330 330 329 330 330 328 323 330 333 333 333 332 332
335 338 335 336 331 329 331 339 337 339 340 341 339 323 322 324 325 325 333 327 333 333 331 330 332 332 333 332 331 333 332 331 331 330 329 329 322 328 333 333 334 333 332
333 330 335 338 327 321 320 321 323 325 338 335 338 332 322 325 330 330 323 319 321 323 329 323 331 331 333 332 334 335 334 334 333 333 333 334 328 321 330 334 335 335 333
328 331 328 326 331 328 322 320 320 321 321 325 323 329 324 321 321 321 321 319 318 320 319 324 333 333 332 334 336 337 337 337 336 337 338 337 333 326 321 333 335 336 333
318 328 332 329 328 332 331 325 322 320 320 320 320 320 320 320 319 318 318 318 322 329 334 334 335 335 337 338 339 340 340 339 339 339 338 334 334 337 337 331 336 336 334
314 314 320 331 332 327 330 334 333 326 324 321 320 321 332 325 319 319 319 320 334 335 333 332 330 334 337 340 342 342 341 340 340 340 339 337 339 339 340 340 336 335 334
313 314 315 315 328 332 330 330 326 332 334 328 326 320 322 319 320 320 320 324 335 333 330 331 330 330 335 341 343 342 341 341 340 341 340 340 340 340 341 341 338 338 336
314 313 314 314 315 330 331 331 332 339 340 340 337 330 324 321 321 322 322 333 336 332 333 332 330 331 335 339 343 343 343 342 341 341 341 341 340 340 341 342 338 339 338
314 316 312 313 314 321 331 332 332 330 333 338 342 338 336 330 324 324 324 333 333 333 332 331 331 334 335 341 343 343 344 344 343 342 341 341 341 340 340 340 340 340 338
317 313 315 313 313 313 315 326 329 331 332 337 343 343 337 337 337 336 328 333 333 331 334 332 333 334 340 344 342 344 344 341 341 342 342 341 341 339 339 339 338 337 337
316 314 312 313 313 315 314 314 315 329 332 330 339 343 343 335 338 339 330 335 333 331 332 332 334 338 336 343 343 341 344 343 341 340 339 340 339 338 338 337 337 336 336
316 313 313 312 312 312 313 314 315 321 328 331 337 342 343 338 337 340 333 334 336 334 333 333 335 338 336 343 344 344 344 344 342 340 339 339 338 337 337 337 336 334 335
317 318 316 312 312 312 313 315 315 315 317 324 330 337 343 347 339 340 337 337 338 338 336 337 338 336 334 339 344 345 345 344 342 340 339 338 337 337 337 336 334 334 334
Wind_Speed
16 18 19 21 24 23 22 21 21 20 19 17 16 15 17 18 18 17 17 16 14 13 12 10 9 8 7 6 5 5 5 5 6 6 7 7 6 5 5 5 7 2 3
18 20 21 22 25 25 23 22 22 21 20 18 17 17 18 18 18 18 17 16 14 13 12 10 9 8 7 6 5 5 5 5 6 8 9 10 8 6 3 3 5 1 3
21 21 23 23 26 27 24 24 24 23 21 19 18 19 19 19 19 18 16 16 14 13 11 10 9 9 8 7 6 5 6 6 6 8 10 6 4 6 6 3 2 2 3
22 23 24 26 27 29 27 26 25 23 22 19 19 20 20 19 18 17 16 14 13 12 11 9 8 7 7 7 5 5 6 6 6 6 7 4 5 6 6 6 3 1 2
25 27 26 26 28 31 29 28 27 26 23 21 22 22 20 19 17 16 14 13 12 10 9 7 6 5 5 5 5 4 5 4 4 6 2 2 3 1 4 5 5 2 1
25 28 27 27 29 31 31 30 28 26 24 24 24 22 20 18 16 14 12 11 10 8 7 5 4 2 2 1 1 2 3 2 2 2 1 2 2 3 2 5 5 3 2
27 29 30 30 31 32 33 32 31 28 26 25 23 22 19 17 15 13 11 10 8 7 6 4 3 2 2 3 3 1 0 0 2 4 2 1 4 3 2 2 3 3 1
27 28 33 32 32 33 33 32 32 31 29 26 24 22 19 17 14 13 11 10 9 8 6 5 5 5 5 6 6 5 3 3 2 5 4 3 5 5 4 2 1 1 2
25 25 33 35 34 34 33 33 33 32 30 28 25 22 19 17 14 13 11 10 9 8 7 6 7 7 7 8 9 9 7 6 4 6 4 4 7 7 7 5 3 1 2
23 23 25 36 37 36 35 34 33 33 31 29 26 23 20 18 15 14 13 12 11 10 9 9 8 8 9 10 12 12 12 10 7 8 6 7 7 9 8 8 6 3 2
21 23 24 27 33 36 34 35 34 33 32 30 27 25 22 20 18 18 16 15 12 12 12 11 11 10 12 13 14 15 14 10 9 8 8 13 9 9 8 8 7 6 3
21 23 24 25 27 28 27 30 36 35 33 31 30 27 25 23 20 19 19 17 16 14 15 15 14 14 15 12 13 16 16 12 12 11 10 15 10 10 9 8 9 9 7
20 22 23 25 26 27 27 26 28 29 29 31 32 30 27 22 19 20 16 18 18 16 16 17 18 17 13 12 12 13 12 13 14 13 13 17 13 13 11 9 9 10 9
13 23 23 24 26 30 26 27 25 27 25 25 29 32 29 27 22 18 14 13 15 13 14 15 13 14 14 15 14 15 15 15 14 14 14 19 15 14 14 12 11 8 9
2 10 22 25 30 34 37 27 29 29 27 25 26 31 30 27 23 21 18 16 13 11 11 11 13 14 14 15 15 16 16 16 16 15 14 20 17 17 17 15 13 10 10
8 6 8 19 27 32 36 39 36 36 27 31 25 27 32 28 25 20 20 17 14 13 12 12 11 14 16 17 16 17 17 16 15 15 14 14 17 19 18 18 15 12 11
14 14 14 13 15 28 36 40 40 37 39 33 30 32 31 30 29 24 19 16 13 14 14 15 17 20 18 17 18 18 17 16 15 15 15 13 13 15 20 19 18 15 12
5 18 31 12 8 11 27 33 37 39 42 38 41 36 35 37 32 28 24 16 13 12 9 13 16 23 19 16 18 16 15 15 15 14 13 12 11 11 13 16 18 16 13
5 4 10 25 27 11 6 17 28 35 38 40 41 38 34 43 35 30 26 15 10 12 11 13 19 25 24 18 16 18 17 16 15 13 13 13 12 12 12 14 16 16 13
8 8 7 6 24 40 26 16 18 26 31 36 36 40 49 44 42 33 25 18 13 7 4 15 29 31 28 19 17 20 18 16 15 15 14 13 12 14 15 16 13 12 14
8 12 10 14 8 28 40 30 29 22 19 27 30 41 47 46 39 35 27 20 18 11 16 33 30 36 29 27 18 20 18 20 18 15 14 14 14 14 16 17 14 14 13
11 9 12 12 11 14 31 48 43 38 32 26 26 37 42 43 43 37 31 28 25 20 23 32 29 25 27 24 19 16 17 15 14 16 16 16 15 14 15 15 15 15 15
9 11 10 11 11 11 13 30 44 44 52 37 31 29 32 35 39 32 33 33 26 25 26 31 35 36 25 20 24 18 10 13 6 9 14 13 13 12 14 15 14 12 13
10 12 13 12 13 11 14 15 19 23 33 43 31 24 27 29 27 32 38 38 33 26 30 29 31 31 31 25 22 27 25 13 9 9 9 10 12 12 12 11 12 10 12
10 14 14 15 15 16 14 17 19 21 26 28 27 25 26 27 26 31 40 44 44 33 38 36 35 31 33 24 22 14 22 18 16 17 13 11 10 13 12 11 11 10 11
11 11 13 17 17 17 18 17 19 24 27 26 23 24 23 22 27 28 38 46 46 39 34 38 35 33 31 29 23 20 17 16 16 16 15 15 14 8 10 11 10 8 9
Wind_Direction
188 191 185 179 172 170 169 169 170 165 158 152 150 146 145 142 139 140 140 141 142 138 136 130 127 116 110 104 93 87 78 75 75 77 77 74 72 83 86 77 67 24 27
196 193 186 184 177 171 170 169 169 166 161 158 154 152 148 147 143 144 142 142 140 136 134 129 121 114 110 106 93 86 90 89 81 78 81 69 68 69 76 77 107 49 51
185 186 185 187 180 175 172 170 170 169 163 161 158 158 154 152 149 149 147 144 143 139 137 135 131 126 121 110 99 96 94 96 86 81 76 96 67 64 68 71 101 69 59
187 183 185 188 182 176 175 172 170 169 166 166 164 164 161 158 155 152 151 149 146 144 143 142 136 131 126 114 97 95 97 95 92 94 71 97 90 66 76 73 72 113 82
197 184 185 187 184 178 177 176 173 170 172 171 169 168 167 163 162 159 159 157 153 151 151 147 144 144 124 109 110 104 98 104 99 79 133 100 113 51 76 73 58 56 159
186 185 184 186 184 181 181 179 177 175 175 173 173 173 172 171 170 168 169 166 165 165 163 162 159 142 98 84 77 90 103 111 125 140 153 345 135 227 96 89 86 87 173
186 184 183 183 185 183 182 182 179 179 177 178 179 179 180 180 181 180 182 182 183 180 183 188 197 212 248 267 280 279 285 99 95 251 250 279 223 236 187 127 85 70 98
187 182 183 181 186 185 184 186 184 181 180 183 185 188 189 191 192 193 196 199 206 206 201 211 231 241 253 270 281 285 275 274 264 242 247 262 265 240 226 225 219 38 25
189 185 186 182 188 189 187 188 187 186 187 188 192 194 199 202 206 212 211 215 226 228 230 233 239 247 253 265 274 281 276 267 242 254 251 260 269 241 233 237 243 280 338
192 192 192 186 189 192 193 193 194 191 194 196 199 202 203 210 217 225 229 229 233 243 248 249 249 252 256 261 267 271 272 272 268 257 270 246 272 242 235 231 239 260 319
198 195 194 193 193 194 197 198 199 199 200 204 206 208 210 216 222 231 236 239 243 251 257 259 258 257 256 259 264 266 269 268 257 264 257 263 270 242 236 232 239 254 273
202 201 195 196 196 195 197 202 204 206 207 210 213 216 217 221 226 228 240 243 244 248 261 263 264 262 259 258 273 265 261 258 261 252 253 257 262 240 239 238 243 255 262
218 209 203 199 201 197 198 203 208 209 213 215 217 219 222 225 229 234 237 249 250 253 263 272 271 272 257 249 252 257 261 257 258 258 252 255 252 237 235 241 249 258 255
219 219 216 210 203 201 202 205 206 207 212 216 222 223 223 226 231 228 229 235 251 247 260 256 259 260 260 260 257 254 256 252 254 256 253 260 245 239 234 242 251 258 239
194 227 224 222 219 211 203 207 207 210 216 217 221 230 232 235 236 238 233 237 237 250 255 258 266 264 269 269 267 263 260 257 253 250 252 263 247 241 234 239 247 256 246
226 260 253 230 234 235 228 222 219 219 217 223 223 229 234 232 236 235 243 251 254 270 266 276 267 270 273 267 270 270 264 259 256 250 253 257 261 243 238 237 251 261 256
240 243 269 294 243 238 237 235 234 230 233 233 236 233 239 242 239 241 246 254 267 266 276 288 297 290 273 271 273 269 268 264 253 253 257 255 255 258 244 237 247 268 257
245 213 255 267 275 244 243 246 243 244 246 244 244 246 253 257 250 251 252 262 271 280 309 304 306 289 271 276 270 269 265 258 252 250 258 248 241 239 262 240 247 260 257
237 237 215 241 254 272 251 253 252 246 248 246 249 250 242 255 253 251 253 254 246 269 335 346 314 289 284 273 268 268 259 257 253 250 245 243 241 233 236 254 253 257 259
288 278 254 258 221 237 250 275 288 270 255 250 246 243 242 250 251 249 248 232 218 293 61 328 302 274 287 268 267 264 258 258 251 246 247 245 241 243 244 245 254 264 269
290 265 269 262 254 235 240 253 274 267 264 254 251 250 249 249 245 248 242 219 215 220 272 265 254 263 271 269 261 261 261 262 249 245 251 248 246 250 250 248 257 250 264
284 291 272 274 271 244 229 231 261 270 279 276 261 253 247 249 249 247 241 221 219 250 260 248 250 262 268 255 242 251 262 252 254 251 245 249 247 246 259 259 250 251 249
318 286 293 283 270 254 232 223 231 244 262 264 254 248 245 242 244 237 228 218 232 234 269 250 255 263 253 245 238 226 248 250 249 239 242 235 242 246 255 253 247 250 249
320 314 294 290 289 276 257 242 232 225 236 241 246 245 245 246 244 226 221 223 234 233 239 252 257 256 253 234 239 236 230 243 236 237 233 234 236 246 243 244 259 256 247
324 311 313 295 287 289 270 258 248 244 242 243 242 242 246 249 246 226 222 227 233 236 248 260 256 254 249 233 230 234 231 236 240 246 250 226 235 250 251 259 248 254 256
320 322 316 306 294 282 277 269 263 256 248 246 245 244 242 240 244 231 225 227 236 250 251 258 247 248 244 240 224 225 225 228 243 245 242 250 260 241 243 252 261 252 248